�N����,����,�g�[���i�䏊�j���x,�g�[�����x,��g�[���i���ցj���x,����
 2003/08/01, 0:00,30.4,50,26.5,25.8
 2003/08/01, 0:15,30.3,52,26.4,25.8
 2003/08/01, 0:30,30.3,51,26.3,25.8
 2003/08/01, 0:45,30.3,50,26.2,25.8
 2003/08/01, 1:00,30.2,50,26.1,25.8
 2003/08/01, 1:15,30,50,26.1,25.9
 2003/08/01, 1:30,29.8,50,26,25.9
 2003/08/01, 1:45,29.8,50,26,25.8
 2003/08/01, 2:00,29.8,50,26,25.8
 2003/08/01, 2:15,29.8,50,25.9,25.8
 2003/08/01, 2:30,29.5,50,25.9,25.8
 2003/08/01, 2:45,29.4,51,25.9,25.7
 2003/08/01, 3:00,29.4,51,25.9,25.7
 2003/08/01, 3:15,29.4,51,25.9,25.8
 2003/08/01, 3:30,29.3,51,25.8,25.8
 2003/08/01, 3:45,29.1,52,25.7,25.8
 2003/08/01, 4:00,29.2,51,25.7,25.8
 2003/08/01, 4:15,29.2,51,25.7,25.8
 2003/08/01, 4:30,29.2,51,25.7,25.8
 2003/08/01, 4:45,28.9,52,25.7,25.7
 2003/08/01, 5:00,28.9,52,25.6,25.8
 2003/08/01, 5:15,29,52,25.6,25.8
 2003/08/01, 5:30,29,53,25.5,25.7
 2003/08/01, 5:45,29.1,54,25.4,25.7
 2003/08/01, 6:00,28.6,54,25.3,25.7
 2003/08/01, 6:15,28.6,52,25.5,25.7
 2003/08/01, 6:30,28.6,52,25.4,25.7
 2003/08/01, 6:45,28.6,52,25.4,25.7
 2003/08/01, 7:00,28.3,53,25.5,25.7
 2003/08/01, 7:15,28.2,53,25.5,25.7
 2003/08/01, 7:30,28.5,52,25.6,25.8
 2003/08/01, 7:45,28.8,52,25.7,25.8
 2003/08/01, 8:00,29,52,25.9,25.8
 2003/08/01, 8:15,29.2,51,26.1,25.8
 2003/08/01, 8:30,29.4,51,26.3,25.8
 2003/08/01, 8:45,29.5,50,26.4,25.7
 2003/08/01, 9:00,29.8,51,26.5,25.7
 2003/08/01, 9:15,30,51,26.7,25.7
 2003/08/01, 9:30,30.2,51,27.1,25.7
 2003/08/01, 9:45,30.5,53,27.3,25.7
 2003/08/01,10:00,30.6,53,27.5,25.7
 2003/08/01,10:15,30.6,52,27.7,25.8
 2003/08/01,10:30,30.8,51,27.8,25.8
 2003/08/01,10:45,30.8,51,28,25.8
 2003/08/01,11:00,30.8,51,28.1,25.8
 2003/08/01,11:15,30.9,51,28.2,25.8
 2003/08/01,11:30,30.9,51,28.3,25.8
 2003/08/01,11:45,31,51,28.5,25.8
 2003/08/01,12:00,31.1,51,28.7,25.9
 2003/08/01,12:15,31.1,50,29,25.9
 2003/08/01,12:30,31.2,50,29.3,25.9
 2003/08/01,12:45,31.3,50,29.2,25.9
 2003/08/01,13:00,31.3,50,29.1,25.9
 2003/08/01,13:15,31.5,50,29.1,26
 2003/08/01,13:30,31.5,50,29.1,26
 2003/08/01,13:45,31.6,50,29.2,26
 2003/08/01,14:00,31.7,50,29.2,26
 2003/08/01,14:15,31.7,50,29.2,26.1
 2003/08/01,14:30,31.8,50,29.3,26.1
 2003/08/01,14:45,31.9,50,29.4,26.1
 2003/08/01,15:00,32,49,29.5,26.1
 2003/08/01,15:15,32,49,29.5,26.2
 2003/08/01,15:30,32.2,49,29.7,26.2
 2003/08/01,15:45,32.4,49,29.8,26.2
 2003/08/01,16:00,32.5,48,29.9,26.3
 2003/08/01,16:15,32.5,48,29.9,26.3
 2003/08/01,16:30,32.4,49,30,26.3
 2003/08/01,16:45,32.6,49,30.2,26.4
 2003/08/01,17:00,32.9,48,30.4,26.2
 2003/08/01,17:15,33.2,47,30.4,26.2
 2003/08/01,17:30,33.2,47,30.4,26.3
 2003/08/01,17:45,33.3,48,30.3,26.3
 2003/08/01,18:00,33.2,48,30.2,26.4
 2003/08/01,18:15,33.3,47,30.1,26.4
 2003/08/01,18:30,33.3,48,30,26.2
 2003/08/01,18:45,33.1,46,29.8,26.3
 2003/08/01,19:00,33,48,29.8,26
 2003/08/01,19:15,32.9,48,29.7,26.1
 2003/08/01,19:30,32.9,48,29.6,26.1
 2003/08/01,19:45,32.7,48,29.5,26.2
 2003/08/01,20:00,32.6,49,29.5,26.2
 2003/08/01,20:15,32.6,49,29.4,26.3
 2003/08/01,20:30,32.5,49,29.4,26.3
 2003/08/01,20:45,32.3,50,29.3,26.4
 2003/08/01,21:00,32.3,50,29.3,26.4
 2003/08/01,21:15,32.1,50,29.2,26.5
 2003/08/01,21:30,32.2,50,29.1,26.5
 2003/08/01,21:45,31.5,45,29.2,26.1
 2003/08/01,22:00,30.7,39,29.1,26.2
 2003/08/01,22:15,30.1,36,28.9,26.2
 2003/08/01,22:30,30.1,35,28.9,26.3
 2003/08/01,22:45,29.6,35,28.7,26.3
 2003/08/01,23:00,29.3,34,28.7,26.4
 2003/08/01,23:15,30,37,28.6,26.1
 2003/08/01,23:30,30.1,39,28.5,26.1
 2003/08/01,23:45,30.4,41,28.4,26.1
 2003/08/02, 0:00,30.2,42,28.3,26.2
 2003/08/02, 0:15,30.3,43,28.2,26.2
 2003/08/02, 0:30,30.4,43,28.2,26.3
 2003/08/02, 0:45,30.3,45,28.2,26.2
 2003/08/02, 1:00,30.5,46,28.1,26.2
 2003/08/02, 1:15,30.4,47,28,26.3
 2003/08/02, 1:30,30.2,48,27.8,26.3
 2003/08/02, 1:45,30.4,49,27.8,26.3
 2003/08/02, 2:00,30.4,49,27.7,26.4
 2003/08/02, 2:15,30.1,50,27.6,25.9
 2003/08/02, 2:30,30.1,50,27.6,26
 2003/08/02, 2:45,30.3,50,27.5,26
 2003/08/02, 3:00,30.3,50,27.4,26
 2003/08/02, 3:15,30.3,50,27.4,26.1
 2003/08/02, 3:30,30,51,27.4,26.1
 2003/08/02, 3:45,30,51,27.3,26.1
 2003/08/02, 4:00,30.2,51,27.3,26.2
 2003/08/02, 4:15,30.4,50,27.3,26.2
 2003/08/02, 4:30,30.4,50,27.3,26.3
 2003/08/02, 4:45,30.5,50,27.3,26.3
 2003/08/02, 5:00,30.2,50,27.2,26.3
 2003/08/02, 5:15,30.2,51,27.2,26.2
 2003/08/02, 5:30,30.3,52,27.2,26.2
 2003/08/02, 5:45,30.2,56,27.2,26.3
 2003/08/02, 6:00,30.2,57,27.2,26.3
 2003/08/02, 6:15,30.2,55,27.2,26.3
 2003/08/02, 6:30,30.5,54,27.2,26.3
 2003/08/02, 6:45,30.4,54,27.3,26.4
 2003/08/02, 7:00,30.2,54,27.4,26.4
 2003/08/02, 7:15,30.3,54,27.6,26.4
 2003/08/02, 7:30,30.5,53,27.9,26.4
 2003/08/02, 7:45,30.5,53,28.1,26
 2003/08/02, 8:00,30.9,53,28.3,26
 2003/08/02, 8:15,31,50,28.5,26
 2003/08/02, 8:30,31.1,50,28.6,26
 2003/08/02, 8:45,31.4,50,28.8,26
 2003/08/02, 9:00,31.5,50,28.9,26
 2003/08/02, 9:15,31.6,48,29,26.1
 2003/08/02, 9:30,31.7,49,29.2,26.1
 2003/08/02, 9:45,31.8,49,29.2,26.1
 2003/08/02,10:00,31.8,49,29.3,26.2
 2003/08/02,10:15,32,49,29.5,26.2
 2003/08/02,10:30,32,48,29.5,26.2
 2003/08/02,10:45,32,48,29.5,26.3
 2003/08/02,11:00,32.1,48,29.6,26.3
 2003/08/02,11:15,32.1,48,29.7,26.3
 2003/08/02,11:30,31.8,48,29.7,26.4
 2003/08/02,11:45,31.9,47,29.8,26.4
 2003/08/02,12:00,32,48,30,26.4
 2003/08/02,12:15,32.1,48,30.3,26.5
 2003/08/02,12:30,32.1,48,30.5,26.5
 2003/08/02,12:45,32,49,30.4,26.5
 2003/08/02,13:00,32.1,49,30.2,26.6
 2003/08/02,13:15,32.3,49,30.2,26.6
 2003/08/02,13:30,32.4,48,30.3,26.7
 2003/08/02,13:45,32.3,47,30.5,26.7
 2003/08/02,14:00,32.1,45,30.4,26.7
 2003/08/02,14:15,32.4,45,30.6,26.4
 2003/08/02,14:30,32.8,44,30.6,26.3
 2003/08/02,14:45,33.1,44,30.8,26.4
 2003/08/02,15:00,33.3,44,30.8,26.3
 2003/08/02,15:15,33.4,44,30.9,26.3
 2003/08/02,15:30,33.7,44,31.1,26.4
 2003/08/02,15:45,33.9,44,31.2,26.4
 2003/08/02,16:00,34.1,44,31.4,26.5
 2003/08/02,16:15,34.4,44,31.5,26.5
 2003/08/02,16:30,34.6,44,31.9,26.1
 2003/08/02,16:45,34.7,42,31.8,26
 2003/08/02,17:00,34.8,41,31.9,26.1
 2003/08/02,17:15,34.9,41,32,26.2
 2003/08/02,17:30,35.1,40,32.2,26.2
 2003/08/02,17:45,35.1,40,32.1,26.5
 2003/08/02,18:00,35.2,41,32.4,26.6
 2003/08/02,18:15,35.2,40,32.2,26.6
 2003/08/02,18:30,35.1,41,32,26.7
 2003/08/02,18:45,33.8,35,31.7,26.7
 2003/08/02,19:00,33.2,32,31.5,26.8
 2003/08/02,19:15,32.9,34,31.4,26.8
 2003/08/02,19:30,32.7,35,31.1,26.9
 2003/08/02,19:45,32.4,35,31,27
 2003/08/02,20:00,32.3,37,30.4,27
 2003/08/02,20:15,32.4,40,30.5,27.1
 2003/08/02,20:30,31.9,39,30.4,27.1
 2003/08/02,20:45,31.8,38,30.2,27.2
 2003/08/02,21:00,31.5,37,30,27.2
 2003/08/02,21:15,31.2,35,30,27.3
 2003/08/02,21:30,30.8,33,29.8,27.3
 2003/08/02,21:45,30.4,33,29.6,27.4
 2003/08/02,22:00,30.3,33,29.4,27.4
 2003/08/02,22:15,29.9,32,29.3,26.7
 2003/08/02,22:30,29.7,36,29.2,26.7
 2003/08/02,22:45,30.4,37,29.1,26.8
 2003/08/02,23:00,30.4,39,29,26.8
 2003/08/02,23:15,30.3,40,28.9,26.8
 2003/08/02,23:30,30.6,41,28.8,26.9
 2003/08/02,23:45,30.9,41,28.7,26.9
 2003/08/03, 0:00,31.2,41,28.6,27
 2003/08/03, 0:15,31.3,41,28.6,27
 2003/08/03, 0:30,31.4,41,28.5,27
 2003/08/03, 0:45,31.4,42,28.4,27.1
 2003/08/03, 1:00,31.5,42,28.4,27.1
 2003/08/03, 1:15,31.5,43,28.3,27.1
 2003/08/03, 1:30,31.5,43,28.2,27.2
 2003/08/03, 1:45,31.5,43,28.1,27.2
 2003/08/03, 2:00,31.4,44,28.1,27.2
 2003/08/03, 2:15,31.4,44,28.1,27.3
 2003/08/03, 2:30,31.5,44,28,27.3
 2003/08/03, 2:45,31.4,44,28,27.3
 2003/08/03, 3:00,31.4,45,27.9,27.3
 2003/08/03, 3:15,31.4,45,27.9,27.4
 2003/08/03, 3:30,31.3,45,27.9,27.4
 2003/08/03, 3:45,31.4,45,27.9,27.4
 2003/08/03, 4:00,31.3,45,27.9,27.4
 2003/08/03, 4:15,31.3,46,27.9,27.5
 2003/08/03, 4:30,31.3,46,27.9,27.5
 2003/08/03, 4:45,31.3,46,27.8,27.5
 2003/08/03, 5:00,30.9,47,27.8,27.5
 2003/08/03, 5:15,30.9,47,27.8,27.5
 2003/08/03, 5:30,31,47,27.8,27.5
 2003/08/03, 5:45,31.2,57,28,26.9
 2003/08/03, 6:00,31.1,52,28,26.9
 2003/08/03, 6:15,31.1,52,28,27
 2003/08/03, 6:30,31.1,52,28,26.4
 2003/08/03, 6:45,31.1,52,27.9,26.4
 2003/08/03, 7:00,31.2,52,28.1,26.5
 2003/08/03, 7:15,31.2,52,28.1,26.1
 2003/08/03, 7:30,31.3,51,28.2,26.2
 2003/08/03, 7:45,31.4,51,28.3,26.2
 2003/08/03, 8:00,31.4,51,28.5,26.2
 2003/08/03, 8:15,31.5,50,28.7,26.3
 2003/08/03, 8:30,31.3,51,28.9,26.3
 2003/08/03, 8:45,31.3,51,29.1,26.3
 2003/08/03, 9:00,31.6,50,29.2,26.4
 2003/08/03, 9:15,31.9,50,29.4,26.4
 2003/08/03, 9:30,32.1,49,29.5,26.4
 2003/08/03, 9:45,32.3,49,29.7,26.5
 2003/08/03,10:00,32.4,49,29.8,26.5
 2003/08/03,10:15,32.5,49,29.9,26.5
 2003/08/03,10:30,32.6,48,30,26.6
 2003/08/03,10:45,32.7,48,30.1,26.6
 2003/08/03,11:00,32.7,48,30.1,26.6
 2003/08/03,11:15,32.7,48,30.2,26.7
 2003/08/03,11:30,32.8,48,30.2,26.7
 2003/08/03,11:45,32.8,48,30.3,26.8
 2003/08/03,12:00,32.9,48,30.4,26.8
 2003/08/03,12:15,33,48,30.5,26.8
 2003/08/03,12:30,33.1,48,30.7,26.9
 2003/08/03,12:45,33.2,48,30.8,26.9
 2003/08/03,13:00,33.3,48,30.8,26.9
 2003/08/03,13:15,33.5,48,30.9,27
 2003/08/03,13:30,33.6,47,31.1,27
 2003/08/03,13:45,33.8,47,31.2,27.1
 2003/08/03,14:00,33.8,47,31.3,27.1
 2003/08/03,14:15,34,47,31.4,27.1
 2003/08/03,14:30,34.2,46,31.5,27.2
 2003/08/03,14:45,34.2,46,31.6,27.2
 2003/08/03,15:00,34.4,46,31.6,27.3
 2003/08/03,15:15,34.5,46,31.7,27.3
 2003/08/03,15:30,34.6,45,31.8,27.3
 2003/08/03,15:45,34.7,45,31.9,27.4
 2003/08/03,16:00,34.9,45,32.1,27.4
 2003/08/03,16:15,35.2,44,32.2,27.5
 2003/08/03,16:30,35.4,44,32.7,27.5
 2003/08/03,16:45,35.6,41,33.4,27.3
 2003/08/03,17:00,35.7,40,33.5,27.3
 2003/08/03,17:15,35.8,40,33.1,27.3
 2003/08/03,17:30,35.6,39,33,27.4
 2003/08/03,17:45,35.5,42,33,27.5
 2003/08/03,18:00,35.7,43,32.9,27.5
 2003/08/03,18:15,36,42,32.9,27.6
 2003/08/03,18:30,35.9,42,32.7,27.6
 2003/08/03,18:45,35.9,43,32.6,27.7
 2003/08/03,19:00,35.1,38,32.3,26.6
 2003/08/03,19:15,34.2,33,32.2,26.7
 2003/08/03,19:30,33.7,32,32,26.7
 2003/08/03,19:45,33.2,31,31.8,26.7
 2003/08/03,20:00,32.9,32,31.7,26.8
 2003/08/03,20:15,32.5,32,31.3,26.3
 2003/08/03,20:30,32.2,31,31.4,26.4
 2003/08/03,20:45,31.9,30,31.2,26.5
 2003/08/03,21:00,31.7,31,30.8,26.3
 2003/08/03,21:15,32.2,33,30.8,26.3
 2003/08/03,21:30,32.5,34,30.7,26.3
 2003/08/03,21:45,32.6,35,30.5,26.4
 2003/08/03,22:00,32.6,36,30.5,26.5
 2003/08/03,22:15,32.7,37,30.4,26.5
 2003/08/03,22:30,32.5,38,30.2,26.6
 2003/08/03,22:45,32.4,38,30.2,26.7
 2003/08/03,23:00,32.5,39,30.2,26.7
 2003/08/03,23:15,32.5,39,30.1,26.8
 2003/08/03,23:30,32.4,40,30,26.8
 2003/08/03,23:45,32.2,41,30,26.9
 2003/08/04, 0:00,32.3,41,30,27
 2003/08/04, 0:15,32.4,41,29.9,27
 2003/08/04, 0:30,32.1,42,29.9,27
 2003/08/04, 0:45,32.2,43,29.8,27.1
 2003/08/04, 1:00,32.3,43,29.8,27.2
 2003/08/04, 1:15,32.1,44,29.7,27.3
 2003/08/04, 1:30,32,44,29.6,27.3
 2003/08/04, 1:45,32.2,44,29.6,27.3
 2003/08/04, 2:00,32,44,29.6,27.4
 2003/08/04, 2:15,31.9,45,29.5,27.4
 2003/08/04, 2:30,32,45,29.5,27.5
 2003/08/04, 2:45,32,45,29.5,27.5
 2003/08/04, 3:00,31.8,46,29.4,27.5
 2003/08/04, 3:15,31.9,46,29.3,27.6
 2003/08/04, 3:30,32,46,29.3,27.6
 2003/08/04, 3:45,32.1,46,29.2,27.6
 2003/08/04, 4:00,31.9,47,29.1,27.3
 2003/08/04, 4:15,31.7,48,29.1,27.4
 2003/08/04, 4:30,31.6,49,29,27.4
 2003/08/04, 4:45,31.8,49,28.9,27.4
 2003/08/04, 5:00,32,49,29,27.5
 2003/08/04, 5:15,32,49,29,27.5
 2003/08/04, 5:30,32,50,29,27.2
 2003/08/04, 5:45,32.1,53,29,27.3
 2003/08/04, 6:00,31.8,52,28.9,27.3
 2003/08/04, 6:15,31.8,52,29.1,27.3
 2003/08/04, 6:30,31.8,51,28.9,27.4
 2003/08/04, 6:45,32,53,29,26.7
 2003/08/04, 7:00,32.4,52,29.2,26.7
 2003/08/04, 7:15,32.2,51,29.4,26.7
 2003/08/04, 7:30,32.2,51,29.2,26.5
 2003/08/04, 7:45,32.3,51,29.5,26.6
 2003/08/04, 8:00,32.5,52,29.6,26.4
 2003/08/04, 8:15,32.9,54,29.9,26.4
 2003/08/04, 8:30,32.9,51,30.2,26.5
 2003/08/04, 8:45,33.1,51,30.5,26.5
 2003/08/04, 9:00,33.2,50,30.4,26.6
 2003/08/04, 9:15,33.4,49,30.5,26.7
 2003/08/04, 9:30,33.5,49,30.5,26.7
 2003/08/04, 9:45,32.6,40,30.5,26.7
 2003/08/04,10:00,32.1,36,30.5,26.8
 2003/08/04,10:15,31.6,34,30.5,26.8
 2003/08/04,10:30,31.9,36,30.5,26.9
 2003/08/04,10:45,32.4,37,30.5,26.9
 2003/08/04,11:00,32.7,40,30.5,27
 2003/08/04,11:15,32.9,40,30.5,27
 2003/08/04,11:30,33,41,30.6,27
 2003/08/04,11:45,33.1,41,30.8,27.1
 2003/08/04,12:00,32.3,38,31,27.1
 2003/08/04,12:15,31.9,34,31.5,27.2
 2003/08/04,12:30,31.5,33,31.7,27.2
 2003/08/04,12:45,32.4,34,31.7,27.3
 2003/08/04,13:00,31.8,32,31.7,27.2
 2003/08/04,13:15,31.2,29,31.7,27.3
 2003/08/04,13:30,30.6,27,31.7,27.3
 2003/08/04,13:45,30.9,28,31.7,27.4
 2003/08/04,14:00,31.8,32,31.8,27.4
 2003/08/04,14:15,32.4,33,31.8,27.5
 2003/08/04,14:30,32.9,34,31.8,27.4
 2003/08/04,14:45,33.3,36,31.8,27.3
 2003/08/04,15:00,33.6,37,31.9,27
 2003/08/04,15:15,33.9,38,31.9,27
 2003/08/04,15:30,34.3,38,32,27
 2003/08/04,15:45,34.6,39,32,27.1
 2003/08/04,16:00,33.8,33,32.1,27.2
 2003/08/04,16:15,33.3,31,32,27.2
 2003/08/04,16:30,32.7,29,32,26.8
 2003/08/04,16:45,32.8,29,31.9,26.8
 2003/08/04,17:00,33.8,34,32,26.9
 2003/08/04,17:15,34.2,35,32.1,26.9
 2003/08/04,17:30,34.5,36,32.2,27
 2003/08/04,17:45,34.8,37,32.3,27
 2003/08/04,18:00,34.1,33,32.4,27.1
 2003/08/04,18:15,33.2,28,32.3,27.2
 2003/08/04,18:30,32.8,30,32.2,27.2
 2003/08/04,18:45,32.4,28,32,27.3
 2003/08/04,19:00,32,27,31.8,27.3
 2003/08/04,19:15,32.8,32,31.3,27.4
 2003/08/04,19:30,33.1,35,31.1,27.4
 2003/08/04,19:45,33.2,36,31,27.5
 2003/08/04,20:00,33.2,37,30.9,27.5
 2003/08/04,20:15,31.8,31,30.8,27.6
 2003/08/04,20:30,31.1,29,30.6,27.6
 2003/08/04,20:45,30.6,28,30.5,27.7
 2003/08/04,21:00,30.1,27,30.3,27.7
 2003/08/04,21:15,30.7,30,30,27.8
 2003/08/04,21:30,31.2,32,30,27.5
 2003/08/04,21:45,31.4,35,29.9,27.5
 2003/08/04,22:00,31.5,37,29.8,27.6
 2003/08/04,22:15,31.8,39,29.7,27.6
 2003/08/04,22:30,31.8,39,29.7,27.6
 2003/08/04,22:45,30.6,35,29.6,27.7
 2003/08/04,23:00,30.5,37,29.5,27.1
 2003/08/04,23:15,31,38,29.5,27.1
 2003/08/04,23:30,31.3,38,29.4,27.2
 2003/08/04,23:45,31.5,38,29.4,27.2
 2003/08/05, 0:00,31.6,39,29.3,27.2
 2003/08/05, 0:15,31.6,39,29.3,27.3
 2003/08/05, 0:30,31.3,40,29.2,27.3
 2003/08/05, 0:45,31.5,41,29.2,27.3
 2003/08/05, 1:00,31.6,41,29.2,27.4
 2003/08/05, 1:15,31.4,41,29.2,27.4
 2003/08/05, 1:30,31.3,42,29.1,27.5
 2003/08/05, 1:45,31.5,42,29.1,27.5
 2003/08/05, 2:00,31.5,43,29,27.5
 2003/08/05, 2:15,31.3,43,29,27.6
 2003/08/05, 2:30,31.4,44,28.9,27.6
 2003/08/05, 2:45,31.5,44,28.9,27.7
 2003/08/05, 3:00,31.2,44,28.8,27.7
 2003/08/05, 3:15,31.3,44,28.8,27.7
 2003/08/05, 3:30,31.5,44,28.7,27.7
 2003/08/05, 3:45,31.2,45,28.6,27.8
 2003/08/05, 4:00,31.2,45,28.6,27.8
 2003/08/05, 4:15,31.4,45,28.5,27.9
 2003/08/05, 4:30,31.2,46,28.5,27.9
 2003/08/05, 4:45,31.1,46,28.4,27.9
 2003/08/05, 5:00,31.3,46,28.4,27.9
 2003/08/05, 5:15,31.1,46,28.4,28
 2003/08/05, 5:30,31.1,46,28.3,28
 2003/08/05, 5:45,31.2,47,28.3,27.7
 2003/08/05, 6:00,31.3,51,28.3,27.7
 2003/08/05, 6:15,31.2,50,28.3,27.7
 2003/08/05, 6:30,31.3,53,28.3,27.8
 2003/08/05, 6:45,31.7,54,28.4,27.1
 2003/08/05, 7:00,31.8,52,28.5,27.1
 2003/08/05, 7:15,31.8,51,28.6,27.2
 2003/08/05, 7:30,31.8,50,28.8,26.9
 2003/08/05, 7:45,31.8,54,28.9,27
 2003/08/05, 8:00,31.8,52,29.1,27
 2003/08/05, 8:15,31.9,52,29.2,27
 2003/08/05, 8:30,32.1,51,29.6,27.1
 2003/08/05, 8:45,32.4,51,29.6,27.1
 2003/08/05, 9:00,32.5,50,29.7,27.2
 2003/08/05, 9:15,32.7,49,29.8,27
 2003/08/05, 9:30,32.8,49,29.8,27.1
 2003/08/05, 9:45,33,49,29.8,27.1
 2003/08/05,10:00,32.9,48,30.1,27.2
 2003/08/05,10:15,32.8,48,30.3,27.2
 2003/08/05,10:30,32.9,48,30.4,27.3
 2003/08/05,10:45,33.2,48,30.4,27.3
 2003/08/05,11:00,33.4,48,30.5,27.3
 2003/08/05,11:15,33.6,47,30.6,27.3
 2003/08/05,11:30,33.6,47,30.7,27.4
 2003/08/05,11:45,33.7,47,30.8,27.4
 2003/08/05,12:00,33.8,47,30.9,27.5
 2003/08/05,12:15,33.8,47,30.9,27.5
 2003/08/05,12:30,33.6,47,31,27.5
 2003/08/05,12:45,33.6,48,31,27.6
 2003/08/05,13:00,33.6,49,31.1,27.6
 2003/08/05,13:15,34,48,31.1,27.7
 2003/08/05,13:30,34.2,48,31.1,27.6
 2003/08/05,13:45,34.3,48,31.2,27.6
 2003/08/05,14:00,34.4,47,31.4,27.7
 2003/08/05,14:15,34.5,46,31.5,27.7
 2003/08/05,14:30,34.5,42,31.7,27.6
 2003/08/05,14:45,34.7,41,31.7,27.7
 2003/08/05,15:00,34.8,40,32,27.7
 2003/08/05,15:15,35.1,40,32,27.8
 2003/08/05,15:30,35.1,40,32.1,27.8
 2003/08/05,15:45,35.4,40,32.2,27.9
 2003/08/05,16:00,35.6,39,32.3,27.9
 2003/08/05,16:15,35.1,37,32.3,27.9
 2003/08/05,16:30,34.5,33,32.3,27.7
 2003/08/05,16:45,34.3,32,32.3,27.7
 2003/08/05,17:00,34.1,32,32.4,27.8
 2003/08/05,17:15,33.7,30,32.4,27.9
 2003/08/05,17:30,33.6,30,32.4,27.4
 2003/08/05,17:45,33.3,30,32.4,27.5
 2003/08/05,18:00,33.2,31,32.3,27.6
 2003/08/05,18:15,33,32,32.1,27.6
 2003/08/05,18:30,33,34,32,27.7
 2003/08/05,18:45,32.9,36,31.8,27.7
 2003/08/05,19:00,32.7,36,31.7,27.7
 2003/08/05,19:15,32.2,36,31.5,27.8
 2003/08/05,19:30,31.7,37,31.4,27.8
 2003/08/05,19:45,31.7,37,31.2,27.9
 2003/08/05,20:00,31.6,37,31.1,27.9
 2003/08/05,20:15,31.7,38,31.2,28
 2003/08/05,20:30,31.6,38,31,28
 2003/08/05,20:45,31.3,37,31.1,28
 2003/08/05,21:00,31.4,41,30.5,28.1
 2003/08/05,21:15,31.1,38,30.8,28.1
 2003/08/05,21:30,30.9,37,30.8,28.2
 2003/08/05,21:45,31.2,38,30.7,28.2
 2003/08/05,22:00,30.8,37,30.6,28.3
 2003/08/05,22:15,30.4,34,30.6,28.3
 2003/08/05,22:30,31.3,38,30.1,27.6
 2003/08/05,22:45,31.6,39,30,27.6
 2003/08/05,23:00,31.7,40,29.9,27.7
 2003/08/05,23:15,31.8,39,29.9,27.7
 2003/08/05,23:30,31.8,40,29.9,27.7
 2003/08/05,23:45,31.5,42,29.9,27.8
 2003/08/06, 0:00,31.6,42,29.9,27.8
 2003/08/06, 0:15,31.7,42,29.9,27.8
 2003/08/06, 0:30,31.8,42,29.8,27.9
 2003/08/06, 0:45,31.8,42,29.8,27.9
 2003/08/06, 1:00,31.5,43,29.8,27.9
 2003/08/06, 1:15,31.5,43,29.7,27.9
 2003/08/06, 1:30,31.6,43,29.7,28
 2003/08/06, 1:45,31.7,43,29.6,28
 2003/08/06, 2:00,31.7,43,29.6,28
 2003/08/06, 2:15,31.3,44,29.6,28
 2003/08/06, 2:30,31.4,44,29.5,28.1
 2003/08/06, 2:45,31.5,44,29.5,28.1
 2003/08/06, 3:00,31.5,44,29.4,28.1
 2003/08/06, 3:15,31.5,44,29.3,28.2
 2003/08/06, 3:30,31.2,45,29.3,28.2
 2003/08/06, 3:45,31.3,45,29.2,28.2
 2003/08/06, 4:00,31.3,46,29,28.2
 2003/08/06, 4:15,31.4,46,28.9,28.2
 2003/08/06, 4:30,31.2,46,28.9,28.2
 2003/08/06, 4:45,31.1,47,28.8,28.3
 2003/08/06, 5:00,31.2,47,28.8,28.3
 2003/08/06, 5:15,31.2,47,28.9,28.3
 2003/08/06, 5:30,31.1,47,28.8,28.3
 2003/08/06, 5:45,30.9,48,28.7,28.3
 2003/08/06, 6:00,30.9,51,28.7,27.9
 2003/08/06, 6:15,31.2,50,28.5,27.9
 2003/08/06, 6:30,31.3,50,28.8,28
 2003/08/06, 6:45,31.5,52,28.9,27.5
 2003/08/06, 7:00,31.6,50,28.8,27.5
 2003/08/06, 7:15,32,48,28.9,27.4
 2003/08/06, 7:30,31.8,48,29.1,27.4
 2003/08/06, 7:45,31.9,47,29.3,27.4
 2003/08/06, 8:00,32,47,29.5,27.4
 2003/08/06, 8:15,32,47,29.5,27.5
 2003/08/06, 8:30,32.4,49,29.9,27.5
 2003/08/06, 8:45,32.4,47,30.4,27.5
 2003/08/06, 9:00,32.7,48,30.2,27.4
 2003/08/06, 9:15,32.9,48,30.2,27.4
 2003/08/06, 9:30,32.9,47,30.3,27.4
 2003/08/06, 9:45,33,47,30.5,27.5
 2003/08/06,10:00,33.2,47,30.6,27.5
 2003/08/06,10:15,33.3,46,30.7,27.5
 2003/08/06,10:30,33,47,30.6,27.5
 2003/08/06,10:45,32.9,48,30.6,27.6
 2003/08/06,11:00,32.9,48,30.7,27.6
 2003/08/06,11:15,32.9,49,30.7,27.6
 2003/08/06,11:30,32.9,49,30.7,27.7
 2003/08/06,11:45,32.9,50,30.7,27.7
 2003/08/06,12:00,32.9,50,30.8,27.7
 2003/08/06,12:15,33,50,30.8,27.8
 2003/08/06,12:30,33,50,31,27.8
 2003/08/06,12:45,33.1,50,31,27.7
 2003/08/06,13:00,33.2,50,31,27.8
 2003/08/06,13:15,32.4,39,31.1,27.8
 2003/08/06,13:30,31.9,33,31.1,27.9
 2003/08/06,13:45,31.6,30,31.1,27.9
 2003/08/06,14:00,31.2,28,31.2,27.9
 2003/08/06,14:15,31,27,31.2,28
 2003/08/06,14:30,30.8,26,31.1,28
 2003/08/06,14:45,30.5,26,31.1,28
 2003/08/06,15:00,30.2,27,31.1,28
 2003/08/06,15:15,30.9,31,30.9,27.7
 2003/08/06,15:30,31.1,30,32,27.8
 2003/08/06,15:45,31.3,30,31.3,27.8
 2003/08/06,16:00,31.5,31,31.3,27.4
 2003/08/06,16:15,32.7,35,31,27.5
 2003/08/06,16:30,33.4,36,31.3,27.5
 2003/08/06,16:45,33.9,36,31.6,27.6
 2003/08/06,17:00,34.3,36,31.8,27.6
 2003/08/06,17:15,34.7,37,32,27.7
 2003/08/06,17:30,34.9,37,32.1,27.7
 2003/08/06,17:45,35.1,37,32.4,27.7
 2003/08/06,18:00,35.4,41,32.5,27.8
 2003/08/06,18:15,34.5,34,32.3,27.8
 2003/08/06,18:30,33.9,33,32,27.9
 2003/08/06,18:45,33.4,32,32,27.9
 2003/08/06,19:00,32.9,32,31.8,28
 2003/08/06,19:15,32.5,31,31.6,27.7
 2003/08/06,19:30,32.1,30,31.5,27.7
 2003/08/06,19:45,31.7,30,31.4,27.7
 2003/08/06,20:00,31.4,31,31.1,27.8
 2003/08/06,20:15,31.3,33,31.1,27.8
 2003/08/06,20:30,30.9,34,30.8,27.9
 2003/08/06,20:45,31,35,30.5,27.9
 2003/08/06,21:00,30.9,36,30.7,28
 2003/08/06,21:15,30.7,35,30.5,27.9
 2003/08/06,21:30,30.4,34,30.5,28
 2003/08/06,21:45,30.1,35,30.1,28
 2003/08/06,22:00,29.9,34,30.1,27.6
 2003/08/06,22:15,30.3,35,30.1,27.7
 2003/08/06,22:30,30.8,38,30.1,27.7
 2003/08/06,22:45,31,38,30.1,27.7
 2003/08/06,23:00,31.3,38,30.1,27.8
 2003/08/06,23:15,31.5,40,30.1,27.8
 2003/08/06,23:30,31.5,41,30,27.7
 2003/08/06,23:45,31.6,41,30,27.7
 2003/08/07, 0:00,31.3,42,30,27.7
 2003/08/07, 0:15,31.2,44,29.9,27.9
 2003/08/07, 0:30,31.3,44,30,27.9
 2003/08/07, 0:45,31.6,43,29.9,27.9
 2003/08/07, 1:00,31.8,43,29.9,27.9
 2003/08/07, 1:15,31.9,43,29.9,28
 2003/08/07, 1:30,31.9,43,29.9,28
 2003/08/07, 1:45,31.9,42,29.8,28
 2003/08/07, 2:00,31.9,42,29.8,28.1
 2003/08/07, 2:15,31.8,42,29.7,28.1
 2003/08/07, 2:30,31.5,42,29.7,28.1
 2003/08/07, 2:45,31.5,43,29.7,28.1
 2003/08/07, 3:00,31.6,43,29.6,28.2
 2003/08/07, 3:15,31.7,43,29.6,28.2
 2003/08/07, 3:30,31.6,43,29.6,28.2
 2003/08/07, 3:45,31.3,44,29.6,28.2
 2003/08/07, 4:00,31.3,44,29.5,28.2
 2003/08/07, 4:15,31.5,44,29.4,28.3
 2003/08/07, 4:30,31.5,44,29.4,28.3
 2003/08/07, 4:45,31.3,45,29.3,28.3
 2003/08/07, 5:00,31.2,45,29.3,28.3
 2003/08/07, 5:15,31.2,46,29.2,28.3
 2003/08/07, 5:30,31.3,46,29.1,28.1
 2003/08/07, 5:45,31.5,49,29.2,28.1
 2003/08/07, 6:00,31.3,49,29.1,28.2
 2003/08/07, 6:15,31.3,52,28.8,28.2
 2003/08/07, 6:30,31.3,51,28.8,28.2
 2003/08/07, 6:45,31.5,51,28.9,28.2
 2003/08/07, 7:00,31.8,50,28.9,28.2
 2003/08/07, 7:15,31.8,49,29,28.2
 2003/08/07, 7:30,31.8,49,29.2,27.6
 2003/08/07, 7:45,32.1,50,29.2,27.6
 2003/08/07, 8:00,32.1,50,29.4,27.7
 2003/08/07, 8:15,32.3,49,29.5,27.7
 2003/08/07, 8:30,32.4,49,29.8,27.6
 2003/08/07, 8:45,32.6,50,30.2,27.7
 2003/08/07, 9:00,32.7,48,30.8,27.7
 2003/08/07, 9:15,32.9,47,30.5,27.7
 2003/08/07, 9:30,33.1,47,30.6,27.7
 2003/08/07, 9:45,33.3,47,30.5,27.7
 2003/08/07,10:00,33.5,47,30.5,27.7
 2003/08/07,10:15,33.6,47,30.6,27.8
 2003/08/07,10:30,33.4,47,30.7,27.8
 2003/08/07,10:45,33.4,47,30.8,27.8
 2003/08/07,11:00,33.8,47,30.9,27.9
 2003/08/07,11:15,34.1,46,31.1,27.9
 2003/08/07,11:30,34.3,45,31.4,27.9
 2003/08/07,11:45,34.5,45,31.6,27.9
 2003/08/07,12:00,34.7,45,31.6,28
 2003/08/07,12:15,34.8,45,31.5,28
 2003/08/07,12:30,34.9,45,31.5,28
 2003/08/07,12:45,34.9,45,31.6,28
 2003/08/07,13:00,35,45,31.6,28.1
 2003/08/07,13:15,35.1,44,31.7,28.1
 2003/08/07,13:30,34.8,45,31.7,28.1
 2003/08/07,13:45,34.9,45,31.7,28.2
 2003/08/07,14:00,35.1,45,32,28.2
 2003/08/07,14:15,35.1,45,32.2,28.2
 2003/08/07,14:30,35.2,44,32.2,28.3
 2003/08/07,14:45,34.9,45,32.3,28.3
 2003/08/07,15:00,34.9,45,32.3,28.4
 2003/08/07,15:15,35,45,32.3,28.4
 2003/08/07,15:30,35,45,32.2,28.4
 2003/08/07,15:45,35.1,44,32.2,28.5
 2003/08/07,16:00,35.1,44,32.2,28.5
 2003/08/07,16:15,35,44,32,28.6
 2003/08/07,16:30,34.1,37,31.6,28.6
 2003/08/07,16:45,34.4,38,31.7,28.6
 2003/08/07,17:00,34.5,40,31.7,28.7
 2003/08/07,17:15,34.5,41,31.7,28.7
 2003/08/07,17:30,34.1,40,31.6,28
 2003/08/07,17:45,32.8,36,31.5,28.1
 2003/08/07,18:00,32.6,34,31.3,28.1
 2003/08/07,18:15,32.5,36,31,28.2
 2003/08/07,18:30,32.3,35,30.7,28.2
 2003/08/07,18:45,32.9,38,30.2,28.2
 2003/08/07,19:00,33.2,42,29.9,28.3
 2003/08/07,19:15,33.3,42,29.3,28.3
 2003/08/07,19:30,33.1,43,29,28.4
 2003/08/07,19:45,32.7,43,29,28.4
 2003/08/07,20:00,31.8,37,28.9,28.4